Regional Weather Roundup
Issued by NWS

Home | Current Version | Previous Version | Graphics & Text | Print | Product List | Glossary On
Versions: 1 2 3 4 5 6 7 8 9 10 11 12 13 14 15 16 17 18 19 20 21 22 23 24 25 26 27 28 29 30 31 32 33 34 35 36 37 38 39 40 41 42 43 44 45 46 47 48 49 50
000
ASUS45 KBOU 010807
RWRCO

WEATHER ROUNDUP FOR COLORADO
NATIONAL WEATHER SERVICE DENVER/BOULDER CO
100 AM MST SUN FEB 01 2015

NOTE: "FAIR" INDICATES FEW OR NO CLOUDS BELOW 12000 FEET WITH NO
SIGNIFICANT WEATHER AND/OR OBSTRUCTIONS TO VISIBILITY.

COZ001>005-013-030-031-010900-
...NORTHWEST COLORADO...

CITY           SKY/WX    TMP DP  RH WIND       PRES   REMARKS
CRAIG          CLEAR     26  18  71 W8        30.07R WCI  18
HAYDEN         CLEAR     23  18  80 W14G20    30.03R WCI  11
MEEKER         CLEAR     22  19  89 N3        30.06R
MOUNT WERNER   NOT AVBL
STEAMBOAT SPGS CLEAR     19  12  75 E5        30.02R WCI  12
WALDEN         MOCLDY    19  14  79 NW12      29.96S WCI   7
$$

COZ006>008-011-010900-
...WEST CENTRAL VALLEYS...

CITY           SKY/WX    TMP DP  RH WIND       PRES   REMARKS
GRAND JUNCTION PTCLDY    30  29  96 NE3       30.06R
MONTROSE       MOCLDY    32  31  96 S6        30.08R WCI  26
EAGLE          PTCLDY    27  23  86 SE3       30.05R
RIFLE          PTCLDY    28  25  88 E5        30.06R WCI  23
DELTA          CLOUDY    36  35  96 N3        30.07R
NUCLA          CLEAR     30  30 100 E5        30.10S WCI  25
$$

COZ017>023-064>068-010900-
...SOUTHWEST COLORADO...

CITY           SKY/WX    TMP DP  RH WIND       PRES   REMARKS
DURANGO        FOG       32  32 100 CALM      29.98R VSB 3/4
CORTEZ         CLEAR     32  29  88 CALM      30.01S
PAGOSA SPRINGS CLOUDY    32  32 100 CALM      29.98S
TELLURIDE      PTCLDY    22  19  87 CALM      30.07R
WOLF CREEK PAS MOCLDY    14   0  52 NE16G22   30.01S WCI  -2
$$

COZ009-010-012-014-032>034-037-058>063-010900-
...CENTRAL COLORADO...

CITY           SKY/WX    TMP DP  RH WIND       PRES   REMARKS
ASPEN          MOCLDY    25  22  88 NW5       30.00F WCI  19
BUENA VISTA    PTCLDY    26  11  52 NW8       29.92S WCI  17
COPPER MTN     LGT SNOW  14   9  79 W40G52    29.88F WCI  -9
BERTHOUD PASS  LGT SNOW   5   0  78 MISG      29.81F
COTTONWOOD PAS PTCLDY    27   9  46 W22G39    29.90F WCI  12
GUNNISON       PTCLDY    25  19  80 W7        30.02S WCI  17
KREMMLING      CLEAR     27   9  46 W14       29.99R WCI  15
LEADVILLE      CLOUDY    18   6  59 NW13G20   29.91F WCI   5
MONARCH PASS   CLOUDY    14  10  85 MISG      30.02R
SALIDA         PTCLDY    32  17  54 W10G17    29.99S WCI  23
SUNLIGHT       PTCLDY   N/A N/A N/A W8          N/A
WILKERSON PASS PTCLDY    12   3  67 N13G29    29.90F WCI  -3
$$

COZ069>075-010900-
...SAN LUIS VALLEY/SANGRE DE CRISTO MOUNTAINS...

CITY           SKY/WX    TMP DP  RH WIND       PRES   REMARKS
ALAMOSA        CLOUDY    27  26  96 W3        29.94S FOG
LA VETA PASS   CLOUDY    21  19  93 MISG      29.91R FOG
SAGUACHE       PTCLDY    25  18  74 NE5       29.96R WCI  19
$$

COZ035-036-038>040-010900-
...NORTHERN COLORADO FRONT RANGE...

CITY           SKY/WX    TMP DP  RH WIND       PRES   REMARKS
DENVER INTL AP LGT SNOW  28  26  92 N18       29.98R VSB 1   WCI  15
DMNS CITY PARK   N/A     28  27  98 N5G10     30.01R WCI  23
AURORA         LGT SNOW  27  27 100 N13       29.99R VSB 1   WCI  16
FRONT RANGE AP NOT AVBL
ERIE MUNI ARPT LGT SNOW  30  28  92 N15       30.01R WCI  19
BOULDER MUN AP LGT SNOW  30  30 100 CALM      30.01R VSB 1
CENTENNIAL     SNOW      26  26 100 NW9       29.99R VSB 1/4 WCI  17
BROOMFIELD     LGT SNOW  30  28  93 CALM      30.01R
FORT COLLINS   MOCLDY    27  18  69 NE16      30.01R WCI  14
LONGMONT       FLURRIES  33  24  71 NE6       30.02R WCI  27
$$

COZ041-046-047-076>085-087-088-010900-
...PIKES PEAK/PALMER DIVIDE AND SOUTHERN FOOTHILLS...

CITY           SKY/WX    TMP DP  RH WIND       PRES   REMARKS
COLO. SPRINGS  FLURRIES  31  24  75 N16G24    29.94R WCI  20
A. F. ACADEMY  FLURRIES  27  23  86 N18G25    29.93S WCI  13
ELLICOTT       PTCLDY   N/A N/A N/A N20G25    29.90R
FALCON         LGT SNOW  26  24  90 N18G30    29.93R WCI  13
FORT CARSON    CLEAR     31  27  83 N23G29    29.90R WCI  18
LIMON          LGT SNOW  27  25  92 N18       29.94R FOG     WCI  14
MONUMENT HILL  LGT SNOW  23  23 100 N15       29.93R WCI  10
TRINIDAD       CLOUDY    36  32  85 W8        29.89R
$$

COZ042>045-048>051-090-091-010900-
...NORTHEAST COLORADO...

CITY           SKY/WX    TMP DP  RH WIND       PRES   REMARKS
GREELEY ARPT   MOCLDY    28  18  64 N22G29    30.02R WCI  15
AKRON          CLOUDY    22  21  96 N20       29.98R WCI   7
BURLINGTON     CLOUDY    25  22  88 N23G31    29.92R WCI  10
WRAY           CLOUDY    23  21  91 NW22G31   30.01R WCI   8
STERLING       CLOUDY    27  23  86 N12       30.02R WCI  16
HOLYOKE        NOT AVBL
FORT MORGAN    CLOUDY    28  25  87 N15G24    30.01R WCI  16
$$

COZ086-089-092>099-010900-
...SOUTHEAST COLORADO...

CITY           SKY/WX    TMP DP  RH WIND       PRES   REMARKS
PUEBLO         CLOUDY    35  32  88 E3        29.93R
LA JUNTA       CLOUDY    37  31  78 N14       29.93R
LAMAR          CLOUDY    36  33  89 N10       29.89R
SPRINGFIELD      N/A     34  32  92 NW13      29.86R WCI  25
$$


USA.gov is the U.S. government's official web portal to all federal, state and local government web resources and services.